Time,TemperatureF,DewpointF,PressureIn,WindDirection,WindDirectionDegrees,WindSpeedMPH,WindSpeedGustMPH,Humidity,HourlyPrecipIn,Conditions,Clouds,dailyrainin,SoftwareType,DateUTC
2013-05-04 00:00:00,69.8,68.6,29.75,WSW,255,1.0,1.0,96,0.00,,,0.00,Wunderground v.1.15,2013-05-04 04:00:00,
2013-05-04 00:10:00,69.8,68.6,29.75,West,262,1.0,1.0,96,0.00,,,0.00,Wunderground v.1.15,2013-05-04 04:10:00,
2013-05-04 00:20:00,69.6,68.4,29.75,West,262,0.0,0.0,96,0.00,,,0.00,Wunderground v.1.15,2013-05-04 04:20:00,
2013-05-04 00:30:00,69.5,68.6,29.75,West,270,0.0,2.0,97,0.00,,,0.00,Wunderground v.1.15,2013-05-04 04:30:00,
2013-05-04 00:40:00,69.5,68.6,29.75,West,274,1.0,1.0,97,0.00,,,0.00,Wunderground v.1.15,2013-05-04 04:40:00,
2013-05-04 00:50:00,69.4,68.5,29.75,West,272,0.0,0.0,97,0.00,,,0.00,Wunderground v.1.15,2013-05-04 04:50:00,
2013-05-04 01:00:00,69.4,68.5,29.75,West,274,0.0,0.0,97,0.00,,,0.00,Wunderground v.1.15,2013-05-04 05:00:00,
2013-05-04 01:10:00,69.3,68.4,29.74,West,270,0.0,0.0,97,0.00,,,0.00,Wunderground v.1.15,2013-05-04 05:10:00,
2013-05-04 01:20:00,69.2,68.3,29.74,West,269,0.0,0.0,97,0.00,,,0.00,Wunderground v.1.15,2013-05-04 05:20:00,
2013-05-04 01:30:00,69.2,68.3,29.73,West,270,0.0,0.0,97,0.00,,,0.00,Wunderground v.1.15,2013-05-04 05:30:00,
2013-05-04 01:40:00,69.1,68.2,29.73,West,270,0.0,0.0,97,0.00,,,0.00,Wunderground v.1.15,2013-05-04 05:40:00,
2013-05-04 01:50:00,69.2,68.3,29.73,West,280,1.0,1.0,97,0.00,,,0.00,Wunderground v.1.15,2013-05-04 05:50:00,
2013-05-04 02:00:00,69.3,68.7,29.72,WNW,283,1.0,2.0,98,0.00,,,0.00,Wunderground v.1.15,2013-05-04 06:00:00,
2013-05-04 02:10:00,69.3,68.4,29.72,West,277,1.0,1.0,97,0.00,,,0.00,Wunderground v.1.15,2013-05-04 06:10:00,
2013-05-04 02:20:00,69.3,68.4,29.71,West,280,1.0,2.0,97,0.00,,,0.00,Wunderground v.1.15,2013-05-04 06:20:00,
2013-05-04 02:30:00,69.3,68.4,29.71,WNW,284,1.0,1.0,97,0.00,,,0.00,Wunderground v.1.15,2013-05-04 06:30:00,
2013-05-04 02:40:00,69.3,68.4,29.70,West,270,1.0,1.0,97,0.00,,,0.00,Wunderground v.1.15,2013-05-04 06:40:00,
2013-05-04 02:50:00,69.2,68.3,29.70,West,262,1.0,1.0,97,0.00,,,0.00,Wunderground v.1.15,2013-05-04 06:50:00,
2013-05-04 03:00:00,69.1,68.2,29.70,West,272,1.0,1.0,97,0.00,,,0.00,Wunderground v.1.15,2013-05-04 07:00:00,
2013-05-04 03:10:00,69.1,68.5,29.70,West,262,2.0,2.0,98,0.00,,,0.00,Wunderground v.1.15,2013-05-04 07:10:00,
2013-05-04 03:20:00,69.0,68.4,29.71,West,270,2.0,2.0,98,0.00,,,0.00,Wunderground v.1.15,2013-05-04 07:20:00,
2013-05-04 03:30:00,69.0,68.4,29.71,West,262,1.0,4.0,98,0.00,,,0.00,Wunderground v.1.15,2013-05-04 07:30:00,
2013-05-04 03:40:00,68.9,68.3,29.71,WSW,250,1.0,2.0,98,0.00,,,0.00,Wunderground v.1.15,2013-05-04 07:40:00,
2013-05-04 03:50:00,68.9,68.3,29.71,WNW,300,1.0,2.0,98,0.00,,,0.00,Wunderground v.1.15,2013-05-04 07:50:00,
2013-05-04 04:00:00,68.8,68.2,29.71,West,262,2.0,2.0,98,0.00,,,0.00,Wunderground v.1.15,2013-05-04 08:00:00,
2013-05-04 04:10:00,68.8,68.2,29.71,WNW,293,1.0,1.0,98,0.00,,,0.00,Wunderground v.1.15,2013-05-04 08:10:00,
2013-05-04 04:20:00,68.9,68.3,29.71,West,280,2.0,3.0,98,0.00,,,0.00,Wunderground v.1.15,2013-05-04 08:20:00,
2013-05-04 04:30:00,69.0,68.1,29.71,WNW,300,3.0,3.0,97,0.00,,,0.00,Wunderground v.1.15,2013-05-04 08:30:00,
2013-05-04 04:40:00,69.0,68.1,29.71,NW,304,3.0,4.0,97,0.00,,,0.00,Wunderground v.1.15,2013-05-04 08:40:00,
2013-05-04 04:50:00,68.8,67.6,29.71,NW,312,3.0,3.0,96,0.00,,,0.00,Wunderground v.1.15,2013-05-04 08:50:00,
2013-05-04 05:00:00,68.8,67.6,29.71,WNW,291,3.0,3.0,96,0.00,,,0.00,Wunderground v.1.15,2013-05-04 09:00:00,
2013-05-04 05:10:00,68.6,67.4,29.71,WNW,300,2.0,2.0,96,0.00,,,0.00,Wunderground v.1.15,2013-05-04 09:10:00,
2013-05-04 05:20:00,68.5,67.3,29.71,WNW,295,2.0,4.0,96,0.00,,,0.00,Wunderground v.1.15,2013-05-04 09:20:00,
2013-05-04 05:30:00,68.4,67.2,29.72,WNW,293,3.0,3.0,96,0.00,,,0.00,Wunderground v.1.15,2013-05-04 09:30:00,
2013-05-04 05:40:00,68.3,67.1,29.72,WNW,288,2.0,2.0,96,0.00,,,0.00,Wunderground v.1.15,2013-05-04 09:40:00,
2013-05-04 05:50:00,68.1,66.9,29.72,WNW,292,2.0,3.0,96,0.00,,,0.00,Wunderground v.1.15,2013-05-04 09:50:00,
2013-05-04 06:00:00,68.1,66.9,29.72,NW,304,2.0,2.0,96,0.00,,,0.00,Wunderground v.1.15,2013-05-04 10:00:00,
2013-05-04 06:10:00,67.9,67.0,29.73,West,281,2.0,2.0,97,0.00,,,0.00,Wunderground v.1.15,2013-05-04 10:10:00,
2013-05-04 06:20:00,67.8,66.9,29.72,WNW,282,2.0,2.0,97,0.00,,,0.00,Wunderground v.1.15,2013-05-04 10:20:00,
2013-05-04 06:30:00,67.8,66.9,29.73,West,274,2.0,4.0,97,0.00,,,0.00,Wunderground v.1.15,2013-05-04 10:30:00,
2013-05-04 06:40:00,67.9,67.0,29.73,WNW,300,2.0,2.0,97,0.00,,,0.00,Wunderground v.1.15,2013-05-04 10:40:00,
2013-05-04 06:50:00,67.8,66.9,29.74,WNW,288,3.0,3.0,97,0.00,,,0.01,Wunderground v.1.15,2013-05-04 10:50:00,
2013-05-04 07:00:00,67.7,66.8,29.74,West,264,1.0,1.0,97,0.00,,,0.01,Wunderground v.1.15,2013-05-04 11:00:00,
2013-05-04 07:10:00,67.7,66.8,29.74,West,262,1.0,1.0,97,0.00,,,0.01,Wunderground v.1.15,2013-05-04 11:10:00,
2013-05-04 07:20:00,68.0,67.1,29.75,West,266,2.0,2.0,97,0.00,,,0.01,Wunderground v.1.15,2013-05-04 11:20:00,
2013-05-04 07:30:00,68.4,67.5,29.75,WNW,295,1.0,1.0,97,0.00,,,0.01,Wunderground v.1.15,2013-05-04 11:30:00,
2013-05-04 07:40:00,68.9,68.0,29.75,West,270,1.0,1.0,97,0.00,,,0.01,Wunderground v.1.15,2013-05-04 11:40:00,
2013-05-04 08:00:00,70.3,68.8,29.76,West,264,1.0,3.0,95,0.00,,,0.01,Wunderground v.1.15,2013-05-04 12:00:00,
2013-05-04 08:10:00,70.6,68.8,29.76,WNW,297,3.0,3.0,94,0.00,,,0.01,Wunderground v.1.15,2013-05-04 12:10:00,
2013-05-04 08:40:00,71.7,68.9,29.76,WNW,284,4.0,4.0,91,0.00,,,0.01,Wunderground v.1.15,2013-05-04 12:40:00,
2013-05-04 08:50:00,72.4,69.6,29.76,West,277,4.0,4.0,91,0.00,,,0.01,Wunderground v.1.15,2013-05-04 12:50:00,
2013-05-04 09:00:00,72.6,69.5,29.76,West,262,5.0,5.0,90,0.00,,,0.01,Wunderground v.1.15,2013-05-04 13:00:00,
2013-05-04 09:10:00,73.1,69.3,29.76,NW,315,5.0,5.0,88,0.00,,,0.01,Wunderground v.1.15,2013-05-04 13:10:00,
2013-05-04 09:20:00,73.4,69.3,29.76,West,271,6.0,8.0,87,0.00,,,0.01,Wunderground v.1.15,2013-05-04 13:20:00,
2013-05-04 09:30:00,73.5,69.1,29.77,WNW,294,7.0,7.0,86,0.00,,,0.01,Wunderground v.1.15,2013-05-04 13:30:00,
2013-05-04 09:40:00,74.2,69.7,29.76,West,271,5.0,5.0,86,0.00,,,0.01,Wunderground v.1.15,2013-05-04 13:40:00,
2013-05-04 09:50:00,74.7,69.9,29.77,North,356,6.0,6.0,85,0.00,,,0.01,Wunderground v.1.15,2013-05-04 13:50:00,
2013-05-04 10:00:00,75.4,69.9,29.77,WNW,293,5.0,5.0,83,0.00,,,0.01,Wunderground v.1.15,2013-05-04 14:00:00,
2013-05-04 10:10:00,75.9,68.5,29.77,West,281,7.0,7.0,78,0.00,,,0.01,Wunderground v.1.15,2013-05-04 14:10:00,
2013-05-04 10:20:00,77.1,68.6,29.77,West,270,5.0,8.0,75,0.00,,,0.01,Wunderground v.1.15,2013-05-04 14:20:00,
2013-05-04 10:30:00,77.2,69.0,29.77,WSW,256,6.0,6.0,76,0.00,,,0.01,Wunderground v.1.15,2013-05-04 14:30:00,
2013-05-04 10:40:00,77.5,68.6,29.77,NW,309,6.0,6.0,74,0.00,,,0.01,Wunderground v.1.15,2013-05-04 14:40:00,
2013-05-04 10:50:00,77.7,68.7,29.78,WNW,287,7.0,7.0,74,0.00,,,0.01,Wunderground v.1.15,2013-05-04 14:50:00,
2013-05-04 11:00:00,77.9,69.3,29.77,WNW,284,7.0,7.0,75,0.00,,,0.01,Wunderground v.1.15,2013-05-04 15:00:00,
2013-05-04 11:10:00,78.6,68.8,29.78,West,272,7.0,7.0,72,0.00,,,0.01,Wunderground v.1.15,2013-05-04 15:10:00,
2013-05-04 11:20:00,78.8,68.6,29.78,WNW,294,6.0,8.0,71,0.00,,,0.01,Wunderground v.1.15,2013-05-04 15:20:00,
2013-05-04 11:30:00,78.9,68.7,29.78,WNW,282,6.0,9.0,71,0.00,,,0.01,Wunderground v.1.15,2013-05-04 15:30:00,
2013-05-04 11:40:00,79.0,68.0,29.78,NW,314,7.0,7.0,69,0.00,,,0.01,Wunderground v.1.15,2013-05-04 15:40:00,
2013-05-04 11:50:00,79.8,68.7,29.78,NW,307,6.0,6.0,69,0.00,,,0.01,Wunderground v.1.15,2013-05-04 15:50:00,
2013-05-04 12:00:00,79.6,68.5,29.77,WNW,284,6.0,11.0,69,0.00,,,0.01,Wunderground v.1.15,2013-05-04 16:00:00,
2013-05-04 12:10:00,79.9,69.7,29.77,NW,315,6.0,11.0,71,0.00,,,0.01,Wunderground v.1.15,2013-05-04 16:10:00,
2013-05-04 12:20:00,79.8,69.1,29.77,WNW,300,6.0,10.0,70,0.00,,,0.01,Wunderground v.1.15,2013-05-04 16:20:00,
2013-05-04 12:30:00,80.2,68.7,29.77,WNW,297,6.0,6.0,68,0.00,,,0.01,Wunderground v.1.15,2013-05-04 16:30:00,
2013-05-04 12:40:00,79.8,68.3,29.76,West,269,6.0,7.0,68,0.00,,,0.01,Wunderground v.1.15,2013-05-04 16:40:00,
2013-05-04 12:50:00,80.4,68.0,29.76,WNW,284,7.0,7.0,66,0.00,,,0.01,Wunderground v.1.15,2013-05-04 16:50:00,
2013-05-04 13:00:00,80.9,68.9,29.75,WNW,284,6.0,8.0,67,0.00,,,0.01,Wunderground v.1.15,2013-05-04 17:00:00,
2013-05-04 13:10:00,80.6,68.2,29.75,WNW,293,7.0,7.0,66,0.00,,,0.01,Wunderground v.1.15,2013-05-04 17:10:00,
2013-05-04 13:20:00,80.9,67.6,29.75,NW,304,7.0,10.0,64,0.00,,,0.01,Wunderground v.1.15,2013-05-04 17:20:00,
2013-05-04 13:30:00,81.9,69.0,29.75,West,266,6.0,6.0,65,0.00,,,0.01,Wunderground v.1.15,2013-05-04 17:30:00,
2013-05-04 13:40:00,81.6,69.1,29.75,WNW,288,5.0,5.0,66,0.00,,,0.01,Wunderground v.1.15,2013-05-04 17:40:00,
2013-05-04 13:50:00,81.7,68.3,29.75,NNW,338,6.0,6.0,64,0.00,,,0.01,Wunderground v.1.15,2013-05-04 17:50:00,
2013-05-04 14:00:00,82.2,68.3,29.75,NNW,336,6.0,6.0,63,0.00,,,0.01,Wunderground v.1.15,2013-05-04 18:00:00,
2013-05-04 14:10:00,82.8,68.4,29.74,NW,306,6.0,6.0,62,0.00,,,0.01,Wunderground v.1.15,2013-05-04 18:10:00,
2013-05-04 14:20:00,82.9,69.5,29.74,WNW,295,4.0,4.0,64,0.00,,,0.01,Wunderground v.1.15,2013-05-04 18:20:00,
2013-05-04 14:30:00,83.9,68.5,29.73,WNW,295,5.0,5.0,60,0.00,,,0.01,Wunderground v.1.15,2013-05-04 18:30:00,
2013-05-04 14:40:00,84.2,68.8,29.73,NW,309,6.0,6.0,60,0.00,,,0.01,Wunderground v.1.15,2013-05-04 18:40:00,
2013-05-04 14:50:00,83.8,68.9,29.72,WNW,291,6.0,8.0,61,0.00,,,0.01,Wunderground v.1.15,2013-05-04 18:50:00,
2013-05-04 15:00:00,84.2,68.3,29.72,WNW,301,5.0,5.0,59,0.00,,,0.01,Wunderground v.1.15,2013-05-04 19:00:00,
2013-05-04 15:10:00,85.4,67.9,29.72,WNW,300,5.0,11.0,56,0.00,,,0.01,Wunderground v.1.15,2013-05-04 19:10:00,
2013-05-04 15:20:00,84.6,67.7,29.71,WNW,291,5.0,5.0,57,0.00,,,0.01,Wunderground v.1.15,2013-05-04 19:20:00,
2013-05-04 15:30:00,85.0,67.0,29.71,WNW,290,5.0,7.0,55,0.00,,,0.01,Wunderground v.1.15,2013-05-04 19:30:00,
2013-05-04 15:40:00,85.4,68.4,29.71,West,270,4.0,4.0,57,0.00,,,0.01,Wunderground v.1.15,2013-05-04 19:40:00,
2013-05-04 15:50:00,84.8,68.4,29.70,West,276,4.0,4.0,58,0.00,,,0.01,Wunderground v.1.15,2013-05-04 19:50:00,
2013-05-04 16:00:00,85.7,67.1,29.71,WNW,287,6.0,6.0,54,0.00,,,0.01,Wunderground v.1.15,2013-05-04 20:00:00,
2013-05-04 16:10:00,85.4,66.9,29.71,WNW,297,6.0,6.0,54,0.00,,,0.01,Wunderground v.1.15,2013-05-04 20:10:00,
2013-05-04 16:20:00,85.4,67.9,29.70,NW,312,5.0,5.0,56,0.00,,,0.01,Wunderground v.1.15,2013-05-04 20:20:00,
2013-05-04 16:30:00,85.8,67.8,29.71,West,269,7.0,7.0,55,0.00,,,0.01,Wunderground v.1.15,2013-05-04 20:30:00,
2013-05-04 16:40:00,85.8,67.2,29.71,NW,314,6.0,7.0,54,0.00,,,0.01,Wunderground v.1.15,2013-05-04 20:40:00,
2013-05-04 16:50:00,85.7,66.6,29.71,WNW,288,7.0,7.0,53,0.00,,,0.01,Wunderground v.1.15,2013-05-04 20:50:00,
2013-05-04 17:00:00,85.8,67.2,29.71,NW,306,7.0,7.0,54,0.00,,,0.01,Wunderground v.1.15,2013-05-04 21:00:00,
2013-05-04 17:10:00,85.2,66.7,29.71,WNW,290,7.0,8.0,54,0.00,,,0.01,Wunderground v.1.15,2013-05-04 21:10:00,
2013-05-04 17:20:00,84.8,66.8,29.71,NW,314,7.0,7.0,55,0.00,,,0.01,Wunderground v.1.15,2013-05-04 21:20:00,
2013-05-04 17:30:00,84.4,66.5,29.71,WNW,292,7.0,8.0,55,0.00,,,0.01,Wunderground v.1.15,2013-05-04 21:30:00,
2013-05-04 17:40:00,84.5,67.6,29.72,NW,314,7.0,13.0,57,0.00,,,0.01,Wunderground v.1.15,2013-05-04 21:40:00,
2013-05-04 17:50:00,83.9,67.0,29.72,NW,309,7.0,10.0,57,0.00,,,0.01,Wunderground v.1.15,2013-05-04 21:50:00,
2013-05-04 18:00:00,85.0,67.0,29.72,West,277,5.0,9.0,55,0.00,,,0.01,Wunderground v.1.15,2013-05-04 22:00:00,
2013-05-04 18:10:00,84.7,66.2,29.72,NW,326,8.0,10.0,54,0.00,,,0.01,Wunderground v.1.15,2013-05-04 22:10:00,
2013-05-04 18:20:00,84.7,67.8,29.72,NW,323,7.0,7.0,57,0.00,,,0.01,Wunderground v.1.15,2013-05-04 22:20:00,
2013-05-04 18:30:00,84.5,67.6,29.72,WNW,293,8.0,15.0,57,0.00,,,0.01,Wunderground v.1.15,2013-05-04 22:30:00,
2013-05-04 18:40:00,84.7,67.3,29.72,SW,229,6.0,6.0,56,0.00,,,0.01,Wunderground v.1.15,2013-05-04 22:40:00,
2013-05-04 18:50:00,84.3,67.4,29.72,WNW,301,7.0,11.0,57,0.00,,,0.01,Wunderground v.1.15,2013-05-04 22:50:00,
2013-05-04 19:00:00,83.6,67.3,29.72,WSW,256,7.0,7.0,58,0.00,,,0.01,Wunderground v.1.15,2013-05-04 23:00:00,
2013-05-04 19:10:00,83.2,67.4,29.72,WNW,285,8.0,8.0,59,0.00,,,0.01,Wunderground v.1.15,2013-05-04 23:10:00,
2013-05-04 19:20:00,83.2,67.9,29.73,WNW,297,4.0,5.0,60,0.00,,,0.01,Wunderground v.1.15,2013-05-04 23:20:00,
2013-05-04 19:30:00,82.3,67.5,29.73,West,280,7.0,7.0,61,0.00,,,0.01,Wunderground v.1.15,2013-05-04 23:30:00,
2013-05-04 19:40:00,81.6,67.3,29.74,West,268,8.0,8.0,62,0.00,,,0.01,Wunderground v.1.15,2013-05-04 23:40:00,
2013-05-04 19:50:00,81.0,67.2,29.74,WSW,240,6.0,6.0,63,0.00,,,0.01,Wunderground v.1.15,2013-05-04 23:50:00,
2013-05-04 20:00:00,80.6,66.8,29.75,West,271,4.0,4.0,63,0.00,,,0.01,Wunderground v.1.15,2013-05-05 00:00:00,
2013-05-04 20:10:00,80.1,67.3,29.75,West,268,5.0,7.0,65,0.00,,,0.01,Wunderground v.1.15,2013-05-05 00:10:00,
2013-05-04 20:20:00,79.6,67.2,29.75,SW,236,5.0,5.0,66,0.00,,,0.01,Wunderground v.1.15,2013-05-05 00:20:00,
2013-05-04 20:30:00,79.2,67.3,29.75,NW,304,5.0,7.0,67,0.00,,,0.01,Wunderground v.1.15,2013-05-05 00:30:00,
2013-05-04 20:40:00,78.9,67.4,29.76,WNW,295,6.0,8.0,68,0.00,,,0.01,Wunderground v.1.15,2013-05-05 00:40:00,
2013-05-04 20:50:00,78.4,67.4,29.76,NNW,330,4.0,7.0,69,0.00,,,0.01,Wunderground v.1.15,2013-05-05 00:50:00,
2013-05-04 21:00:00,78.0,67.4,29.77,West,271,5.0,5.0,70,0.00,,,0.01,Wunderground v.1.15,2013-05-05 01:00:00,
2013-05-04 21:10:00,77.5,67.4,29.77,West,269,3.0,3.0,71,0.00,,,0.01,Wunderground v.1.15,2013-05-05 01:10:00,
2013-05-04 21:20:00,77.0,66.9,29.78,WSW,254,3.0,4.0,71,0.00,,,0.01,Wunderground v.1.15,2013-05-05 01:20:00,
2013-05-04 21:30:00,76.7,67.0,29.78,NW,304,4.0,5.0,72,0.00,,,0.01,Wunderground v.1.15,2013-05-05 01:30:00,
2013-05-04 21:40:00,76.3,66.6,29.78,West,274,4.0,11.0,72,0.00,,,0.01,Wunderground v.1.15,2013-05-05 01:40:00,
2013-05-04 21:50:00,76.0,66.7,29.79,West,262,5.0,5.0,73,0.00,,,0.01,Wunderground v.1.15,2013-05-05 01:50:00,
2013-05-04 22:00:00,75.7,66.8,29.79,WNW,293,4.0,4.0,74,0.00,,,0.01,Wunderground v.1.15,2013-05-05 02:00:00,
2013-05-04 22:10:00,75.4,66.5,29.79,NW,304,6.0,8.0,74,0.00,,,0.01,Wunderground v.1.15,2013-05-05 02:10:00,
2013-05-04 22:20:00,75.0,66.5,29.80,West,266,5.0,5.0,75,0.00,,,0.01,Wunderground v.1.15,2013-05-05 02:20:00,
2013-05-04 22:30:00,74.6,66.1,29.80,West,274,4.0,6.0,75,0.00,,,0.01,Wunderground v.1.15,2013-05-05 02:30:00,
2013-05-04 22:40:00,74.2,66.1,29.80,NW,309,5.0,5.0,76,0.00,,,0.01,Wunderground v.1.15,2013-05-05 02:40:00,
2013-05-04 22:50:00,74.0,66.0,29.80,WNW,286,5.0,5.0,76,0.00,,,0.01,Wunderground v.1.15,2013-05-05 02:50:00,
2013-05-04 23:00:00,73.7,66.0,29.81,WSW,257,6.0,6.0,77,0.00,,,0.01,Wunderground v.1.15,2013-05-05 03:00:00,
2013-05-04 23:10:00,73.4,65.7,29.81,West,273,5.0,5.0,77,0.00,,,0.01,Wunderground v.1.15,2013-05-05 03:10:00,
2013-05-04 23:20:00,73.1,65.8,29.81,WSW,256,5.0,5.0,78,0.00,,,0.01,Wunderground v.1.15,2013-05-05 03:20:00,
2013-05-04 23:30:00,72.8,65.9,29.81,WNW,300,5.0,5.0,79,0.00,,,0.01,Wunderground v.1.15,2013-05-05 03:30:00,
2013-05-04 23:40:00,72.5,66.0,29.82,West,271,6.0,6.0,80,0.00,,,0.01,Wunderground v.1.15,2013-05-05 03:40:00,
2013-05-04 23:50:00,72.2,66.0,29.82,WSW,258,5.0,6.0,81,0.00,,,0.01,Wunderground v.1.15,2013-05-05 03:50:00,